Starlink 5739

operational
NORAD ID: 55571 Int'l Des: 2023-020 Owner: SPXS Country: US Constellation: starlink
LEOCIRCULAR

关于 Starlink 5739

正在加载描述...

实时位置

正在加载3D地球...

即将过境

高度历史

Altitude vs Time

uPlot chart will show altitude changes over time

两行轨道根数

1 55571U 23020C 25305.50760266 -.00000339 00000-0 -99922-5 0 9990
2 55571 43.0035 341.4682 0001056 268.4730 91.5992 15.02532417149638
Epoch: Nov 1, 2025 • Age: 24 hours

当前状态

高度 561.5 km
速度 7.59 km/s
星下点 36.46°N, 127.77°W
发射日期 Feb 12, 2023
运行时间 2.7 years
类型 internet

技术详情

分类 Payload
质量 305.00 kg
干质量 290.00 kg
总质量 305.00 kg
长度 0.20 m
直径 2.80 m
跨度 9.00 m
形状 Box + pan
制造商 SPXS
平台类型 Starlink
阶段状态 In Orbit
所有者/国家 SPXS/US

大型星座

Loading constellations...